Time,TemperatureF,DewpointF,PressureIn,WindDirection,WindDirectionDegrees,WindSpeedMPH,WindSpeedGustMPH,Humidity,HourlyPrecipIn,Conditions,Clouds,dailyrainin,SolarRadiationWatts/m^2,SoftwareType,DateUTC
2013-03-21 00:29:00,23.5,21.3,29.80,SSE,165,0.0,0.0,91,0.00,CLR,,0.22,0.0,WeatherDisplay:10.37,2013-03-21 04:29:00,
2013-03-21 00:59:00,22.7,20.5,29.80,SSE,165,0.0,0.0,91,0.00,CLR,,0.22,0.0,WeatherDisplay:10.37,2013-03-21 04:59:00,
2013-03-21 01:29:00,22.0,19.5,29.81,SSE,165,0.0,1.0,90,0.00,CLR,,0.22,0.0,WeatherDisplay:10.37,2013-03-21 05:29:00,
2013-03-21 01:59:00,21.6,19.1,29.81,SSE,165,0.0,0.0,90,0.00,RA,,0.00,0.0,WeatherDisplay:10.37,2013-03-21 05:59:00,
2013-03-21 02:29:00,21.2,19.0,29.81,SSE,165,0.0,0.0,91,0.00,CLR,,0.00,0.0,WeatherDisplay:10.37,2013-03-21 06:29:00,
2013-03-21 02:59:00,20.6,18.4,29.81,SSE,165,0.0,0.0,91,0.00,CLR,,0.00,0.0,WeatherDisplay:10.37,2013-03-21 06:59:00,
2013-03-21 03:29:00,20.6,18.4,29.80,SSE,165,0.0,0.0,91,0.00,CLR,,0.00,0.0,WeatherDisplay:10.37,2013-03-21 07:29:00,
2013-03-21 03:59:00,20.8,18.6,29.79,SSE,164,0.0,1.0,91,0.00,CLR,,0.00,0.0,WeatherDisplay:10.37,2013-03-21 07:59:00,
2013-03-21 04:29:00,21.2,19.0,29.78,SSE,165,0.0,1.0,91,0.00,CLR,,0.00,0.0,WeatherDisplay:10.37,2013-03-21 08:29:00,
2013-03-21 04:59:00,21.4,19.2,29.78,SSE,165,0.0,1.0,91,0.00,CLR,,0.00,0.0,WeatherDisplay:10.37,2013-03-21 08:59:00,
2013-03-21 05:29:00,21.3,19.1,29.78,SSE,165,0.0,1.0,91,0.00,CLR,,0.00,0.0,WeatherDisplay:10.37,2013-03-21 09:29:00,
2013-03-21 05:59:00,21.0,18.5,29.78,SSE,165,0.0,0.0,90,0.00,CLR,,0.00,0.0,WeatherDisplay:10.37,2013-03-21 09:59:00,
2013-03-21 06:29:00,20.5,18.3,29.79,SSE,165,0.0,0.0,91,0.00,OVC,,0.00,0.0,WeatherDisplay:10.37,2013-03-21 10:29:00,
2013-03-21 06:59:00,20.3,18.3,29.78,SSE,164,0.0,0.0,92,0.00,SCT,,0.00,14.0,WeatherDisplay:10.37,2013-03-21 10:59:00,
2013-03-21 07:29:00,21.3,19.6,29.79,SSE,165,0.0,1.0,93,0.00,SCT,,0.00,56.0,WeatherDisplay:10.37,2013-03-21 11:29:00,
2013-03-21 07:59:00,23.4,21.9,29.78,SSE,165,0.0,0.0,94,0.00,FEW,,0.00,155.0,WeatherDisplay:10.37,2013-03-21 11:59:00,
2013-03-21 08:29:00,27.0,24.7,29.78,SSE,165,0.0,1.0,91,0.00,FEW,,0.00,107.0,WeatherDisplay:10.37,2013-03-21 12:29:00,
2013-03-21 08:59:00,29.7,23.1,29.78,SSE,165,0.0,1.0,76,0.00,BKN,,0.00,139.0,WeatherDisplay:10.37,2013-03-21 12:59:00,
2013-03-21 09:29:00,30.6,22.0,29.77,West,275,0.0,4.0,70,0.00,SCT,,0.00,279.0,WeatherDisplay:10.37,2013-03-21 13:29:00,
2013-03-21 09:59:00,31.0,21.0,29.77,WSW,247,0.0,5.0,66,0.00,SCT,,0.00,202.0,WeatherDisplay:10.37,2013-03-21 13:59:00,
2013-03-21 10:29:00,32.6,21.4,29.76,NNW,338,2.0,7.0,63,0.00,SCT,,0.00,629.0,WeatherDisplay:10.37,2013-03-21 14:29:00,
2013-03-21 10:59:00,34.4,20.7,29.75,NNW,338,0.0,7.0,57,0.00,BKN,,0.00,350.0,WeatherDisplay:10.37,2013-03-21 14:59:00,
2013-03-21 11:29:00,34.8,20.3,29.75,North,2,1.0,3.0,55,0.00,SCT,,0.00,438.0,WeatherDisplay:10.37,2013-03-21 15:29:00,
2013-03-21 11:59:00,35.3,21.6,29.74,SSE,147,0.0,5.0,57,0.02,RA,,0.02,399.0,WeatherDisplay:10.37,2013-03-21 15:59:00,
2013-03-21 12:29:00,34.4,21.9,29.73,South,170,1.0,8.0,60,0.00,SCT,,0.02,343.0,WeatherDisplay:10.37,2013-03-21 16:29:00,
2013-03-21 12:59:00,36.3,23.0,29.71,SE,130,1.0,6.0,58,0.02,SCT,,0.04,418.0,WeatherDisplay:10.37,2013-03-21 16:59:00,
2013-03-21 13:29:00,37.1,22.0,29.69,North,358,2.0,6.0,54,0.02,SCT,,0.06,494.0,WeatherDisplay:10.37,2013-03-21 17:29:00,
2013-03-21 13:59:00,38.0,21.5,29.67,NNW,341,0.0,6.0,51,0.03,RA,,0.09,427.0,WeatherDisplay:10.37,2013-03-21 17:59:00,
2013-03-21 14:29:00,38.4,21.4,29.66,North,0,2.0,7.0,50,0.03,RA,,0.12,338.0,WeatherDisplay:10.37,2013-03-21 18:29:00,
2013-03-21 14:59:00,37.2,19.7,29.64,West,281,1.0,7.0,49,0.02,RA,,0.14,279.0,WeatherDisplay:10.37,2013-03-21 18:59:00,
2013-03-21 15:29:00,36.6,22.0,29.63,WNW,289,2.0,8.0,55,0.02,RA,,0.16,352.0,WeatherDisplay:10.37,2013-03-21 19:29:00,
2013-03-21 15:59:00,36.4,23.8,29.62,West,268,0.0,7.0,60,0.01,RA,,0.17,301.0,WeatherDisplay:10.37,2013-03-21 19:59:00,
2013-03-21 16:29:00,35.6,24.2,29.62,West,275,1.0,5.0,63,0.02,RA,,0.19,144.0,WeatherDisplay:10.37,2013-03-21 20:29:00,
2013-03-21 16:59:00,34.9,25.8,29.62,SW,234,0.0,3.0,69,0.01,BKN,,0.20,81.0,WeatherDisplay:10.37,2013-03-21 20:59:00,
2013-03-21 17:29:00,33.8,28.6,29.63,South,169,1.0,4.0,81,0.00,BKN,,0.20,42.0,WeatherDisplay:10.37,2013-03-21 21:29:00,
2013-03-21 17:59:00,31.9,28.8,29.63,SSE,168,0.0,2.0,88,0.01,BKN,,0.21,25.0,WeatherDisplay:10.37,2013-03-21 21:59:00,
2013-03-21 18:29:00,31.3,28.7,29.63,South,169,0.0,1.0,90,0.00,BKN,,0.21,7.0,WeatherDisplay:10.37,2013-03-21 22:29:00,
2013-03-21 18:59:00,30.7,28.4,29.63,SSE,168,0.0,2.0,91,0.00,CLR,,0.21,0.0,WeatherDisplay:10.37,2013-03-21 22:59:00,
2013-03-21 19:29:00,30.3,28.5,29.63,SE,145,3.0,6.0,93,0.01,RA,,0.22,0.0,WeatherDisplay:10.37,2013-03-21 23:29:00,
2013-03-21 19:59:00,30.0,28.5,29.63,SSE,150,0.0,4.0,94,0.00,CLR,,0.22,0.0,WeatherDisplay:10.37,2013-03-21 23:59:00,
2013-03-21 20:29:00,30.1,28.9,29.63,SSE,148,0.0,5.0,95,0.00,CLR,,0.22,0.0,WeatherDisplay:10.37,2013-03-22 00:29:00,
2013-03-21 20:59:00,29.9,28.4,29.63,SSE,150,0.0,5.0,94,0.00,CLR,,0.22,0.0,WeatherDisplay:10.37,2013-03-22 00:59:00,
2013-03-21 21:29:00,29.5,28.0,29.63,SSE,150,0.0,0.0,94,0.00,CLR,,0.22,0.0,WeatherDisplay:10.37,2013-03-22 01:29:00,
2013-03-21 21:59:00,29.2,27.9,29.63,SSE,151,0.0,1.0,95,0.00,CLR,,0.22,0.0,WeatherDisplay:10.37,2013-03-22 01:59:00,
2013-03-21 22:29:00,29.6,28.3,29.63,SSE,151,0.0,1.0,95,0.00,CLR,,0.22,0.0,WeatherDisplay:10.37,2013-03-22 02:29:00,
2013-03-21 22:59:00,29.6,28.6,29.62,SSE,151,0.0,1.0,96,0.00,CLR,,0.22,0.0,WeatherDisplay:10.37,2013-03-22 02:59:00,
2013-03-21 23:29:00,29.0,28.0,29.63,SSE,151,0.0,1.0,96,0.00,CLR,,0.22,0.0,WeatherDisplay:10.37,2013-03-22 03:29:00,